period_start,C,m1,H,J0,J1,J2,J3,J4,J5,JA,JB,JC,JD,JJ,JK,JN,#
2016-08-25 00:01:51,-0.00,0.15,0.00,18.92,25.12,28.83,14.61,48.38,994.65,2045.92,3433.99,3128.77,3542.31,600.08,591.33,23.98,0000 0000 0000 0000 000000
2016-08-25 00:06:52,0.00,0.15,0.00,18.92,25.12,28.83,14.62,48.52,994.64,2045.89,3433.98,3128.71,3542.22,600.18,591.46,24.03,0000 0000 0000 0000 000000
2016-08-25 00:11:53,-0.00,0.15,0.00,18.96,25.12,28.81,14.52,48.36,994.64,2045.93,3433.99,3128.83,3542.26,599.58,590.85,24.08,0000 0000 0000 0000 000000
2016-08-25 00:16:54,-0.00,0.15,0.00,19.00,25.12,28.81,14.56,48.38,994.64,2045.94,3433.98,3128.88,3542.25,599.98,591.19,24.13,0000 0000 0000 0000 000000
2016-08-25 00:21:56,0.01,0.15,0.00,19.03,25.12,28.82,14.54,48.39,994.64,2045.95,3433.98,3128.82,3542.11,599.89,590.99,24.18,0000 0000 0000 0000 000000
2016-08-25 00:26:57,0.00,0.15,0.00,18.97,25.12,28.82,14.51,48.34,994.63,2045.95,3433.96,3128.84,3542.08,599.68,590.82,24.23,0000 0000 0000 0000 000000
2016-08-25 00:31:58,0.00,0.15,0.00,19.01,25.12,28.81,14.53,48.41,994.60,2045.98,3433.97,3128.91,3542.06,600.23,591.32,24.28,0000 0000 0000 0000 000000
2016-08-25 00:36:59,0.00,0.15,0.00,19.07,25.12,28.82,14.60,48.42,994.58,2045.95,3433.99,3128.87,3542.02,600.18,591.09,24.33,0000 0000 0000 0000 000000
2016-08-25 00:42:00,0.00,0.15,0.00,19.05,25.13,28.82,14.57,48.33,994.52,2045.96,3433.92,3128.85,3542.05,600.05,591.01,24.38,0000 0000 0000 0000 000000
2016-08-25 00:47:01,0.02,0.16,0.00,19.11,25.13,28.81,14.55,48.31,994.41,2045.96,3433.43,3128.44,3542.00,600.11,590.80,24.43,0000 0000 0000 0000 000000
2016-08-25 00:52:02,-0.01,0.16,0.00,19.10,25.15,28.79,14.55,48.43,994.47,2045.96,3433.47,3128.47,3542.00,599.96,590.96,24.48,0000 0000 0000 0000 000000
2016-08-25 00:57:03,0.01,0.16,0.00,19.13,25.15,28.79,14.53,48.39,994.44,2045.92,3433.09,3128.10,3542.00,600.16,591.01,24.53,0000 0000 0000 0000 000000
2016-08-25 01:02:04,0.00,0.16,0.00,19.14,25.16,28.80,14.54,48.52,994.39,2045.90,3433.02,3128.04,3541.97,599.75,590.48,24.58,0000 0000 0000 0000 000000
2016-08-25 01:07:05,-0.00,0.16,0.00,19.11,25.17,28.83,14.55,48.42,994.30,2045.85,3433.00,3128.01,3541.90,600.06,590.67,24.63,0000 0000 0000 0000 000000
2016-08-25 01:12:07,0.01,0.16,0.00,19.13,25.18,28.82,14.57,48.37,994.20,2045.86,3433.00,3128.01,3541.73,600.35,590.90,24.68,0000 0000 0000 0000 000000
2016-08-25 01:17:08,0.00,0.16,0.00,19.15,25.20,28.83,14.55,48.34,994.18,2045.86,3432.98,3128.00,3541.43,600.05,590.67,24.74,0000 0000 0000 0000 000000
2016-08-25 01:22:09,-0.03,0.16,0.00,19.18,25.21,28.87,14.53,48.42,994.16,2045.61,3432.91,3128.00,3541.06,599.51,590.07,24.79,0000 0000 0000 0000 000000
2016-08-25 01:27:11,-0.00,0.15,0.00,19.14,25.22,28.88,14.50,48.42,994.16,2045.36,3432.77,3127.99,3541.01,599.78,590.38,24.84,0000 0000 0000 0000 000000
2016-08-25 01:32:12,-0.02,0.15,0.00,19.24,25.25,28.89,14.58,48.51,994.16,2045.14,3432.43,3127.97,3541.00,600.49,590.89,24.89,0000 0000 0000 0000 000000
2016-08-25 01:37:13,0.01,0.15,0.00,19.30,25.27,28.92,14.59,48.48,994.16,2045.07,3432.06,3127.70,3540.92,599.80,590.00,24.94,0000 0000 0000 0000 000000
2016-08-25 01:42:15,0.01,0.15,0.00,19.32,25.29,28.94,14.54,48.35,994.15,2045.00,3432.00,3127.19,3540.42,600.24,590.38,24.99,0000 0000 0000 0000 000000
2016-08-25 01:47:16,0.00,0.16,0.00,19.35,25.31,28.93,14.55,48.41,994.14,2045.00,3431.99,3127.06,3540.11,600.01,590.10,25.04,0000 0000 0000 0000 000000
2016-08-25 01:52:18,0.00,0.16,0.00,19.39,25.34,28.94,14.50,48.36,994.14,2045.00,3431.89,3127.01,3540.01,599.95,590.04,25.09,0000 0000 0000 0000 000000
2016-08-25 01:57:19,0.01,0.16,0.00,19.40,25.37,28.99,14.47,48.39,994.13,2045.00,3431.26,3127.00,3539.99,599.71,589.73,25.14,0000 0000 0000 0000 000000
2016-08-25 02:02:20,0.00,0.16,0.00,19.43,25.40,29.02,14.49,48.39,994.07,2045.00,3431.04,3126.96,3539.84,599.70,589.65,25.19,0000 0000 0000 0000 000000
2016-08-25 02:07:21,0.02,0.16,0.00,19.44,25.42,29.07,14.49,48.37,994.06,2044.98,3431.00,3126.59,3539.14,600.09,590.00,25.24,0000 0000 0000 0000 000000
2016-08-25 02:12:22,0.01,0.16,0.00,19.46,25.45,29.08,14.53,48.45,994.03,2044.97,3430.91,3126.06,3539.01,600.11,590.06,25.29,0000 0000 0000 0000 000000
2016-08-25 02:17:23,0.01,0.16,0.00,19.53,25.48,29.12,14.48,48.42,993.90,2044.91,3430.27,3126.00,3538.98,599.84,589.46,25.34,0000 0000 0000 0000 000000
2016-08-25 02:22:25,-0.04,0.16,0.00,19.56,25.51,29.14,14.49,48.36,993.84,2044.38,3430.02,3125.98,3538.47,599.97,589.43,25.39,0000 0000 0000 0000 000000
2016-08-25 02:27:26,-0.01,0.16,0.00,19.55,25.55,29.16,14.51,48.35,993.79,2044.07,3429.99,3125.78,3538.03,599.87,589.36,25.44,0000 0000 0000 0000 000000
2016-08-25 02:32:27,0.01,0.16,0.00,19.60,25.58,29.23,14.57,48.45,993.92,2044.02,3429.59,3125.10,3537.99,600.35,589.95,25.49,0000 0000 0000 0000 000000
2016-08-25 02:37:28,0.01,0.16,0.00,19.67,25.61,29.25,14.54,48.57,993.92,2044.00,3429.05,3125.00,3537.58,600.25,589.61,25.54,0000 0000 0000 0000 000000
2016-08-25 02:42:30,0.00,0.16,0.00,19.72,25.65,29.31,14.43,48.46,993.71,2044.00,3428.98,3124.95,3537.02,599.75,588.81,25.59,0000 0000 0000 0000 000000
2016-08-25 02:47:31,0.03,0.16,0.00,19.77,25.69,29.31,14.48,48.48,993.69,2043.99,3428.62,3124.45,3536.93,599.97,588.97,25.64,0000 0000 0000 0000 000000
2016-08-25 02:52:32,0.01,0.16,0.00,19.75,25.73,29.35,14.55,48.48,993.67,2043.96,3428.03,3124.01,3536.16,600.21,589.24,25.69,0000 0000 0000 0000 000000
2016-08-25 02:57:33,-0.04,0.16,0.00,19.83,25.78,29.39,14.57,48.46,993.67,2043.56,3428.00,3123.99,3536.00,600.34,589.18,25.74,0000 0000 0000 0000 000000
2016-08-25 03:02:35,-0.01,0.16,0.00,19.83,25.82,29.41,14.49,48.52,993.67,2043.15,3427.54,3123.45,3535.83,599.90,588.73,25.79,0000 0000 0000 0000 000000
2016-08-25 03:07:36,0.01,0.16,0.00,19.85,25.86,29.46,14.53,48.56,993.68,2043.01,3427.08,3123.03,3535.11,599.96,588.88,25.84,0000 0000 0000 0000 000000
2016-08-25 03:12:37,0.00,0.16,0.00,19.88,25.90,29.49,14.53,48.53,993.67,2043.00,3426.97,3122.99,3534.99,599.91,588.67,25.89,0000 0000 0000 0000 000000
2016-08-25 03:17:38,0.01,0.16,0.00,19.92,25.94,29.52,14.57,48.55,993.67,2042.99,3426.73,3122.85,3534.52,600.25,588.86,25.94,0000 0000 0000 0000 000000
2016-08-25 03:22:40,0.02,0.16,0.00,19.95,25.97,29.53,14.51,48.56,993.67,2042.96,3426.11,3122.28,3534.05,600.05,588.71,25.99,0000 0000 0000 0000 000000
2016-08-25 03:27:41,-0.04,0.16,0.00,20.01,26.01,29.59,14.52,48.57,993.67,2042.58,3426.00,3122.01,3533.99,600.24,588.75,26.04,0000 0000 0000 0000 000000
2016-08-25 03:32:42,-0.02,0.16,0.00,20.05,26.04,29.61,14.41,48.48,993.67,2042.10,3425.85,3121.99,3533.60,599.80,588.19,26.09,0000 0000 0000 0000 000000
2016-08-25 03:37:43,0.01,0.16,0.00,20.06,26.07,29.64,14.46,48.50,993.67,2042.01,3425.41,3121.89,3533.05,599.96,588.37,26.14,0000 0000 0000 0000 000000
2016-08-25 03:42:44,0.01,0.16,0.00,20.06,26.11,29.66,14.45,48.50,993.68,2042.00,3425.02,3121.42,3533.00,599.75,588.18,26.19,0000 0000 0000 0000 000000
2016-08-25 03:47:46,0.01,0.16,0.00,20.09,26.13,29.67,14.49,48.52,993.72,2041.99,3424.99,3121.02,3532.70,599.92,588.34,26.24,0000 0000 0000 0000 000000
2016-08-25 03:52:47,0.01,0.16,0.00,20.08,26.16,29.71,14.47,48.58,993.70,2041.95,3424.52,3120.99,3532.05,599.99,588.34,26.29,0000 0000 0000 0000 000000
2016-08-25 03:57:48,0.01,0.16,0.00,20.10,26.19,29.70,14.47,48.43,993.70,2041.84,3424.02,3120.67,3532.00,600.08,588.49,26.34,0000 0000 0000 0000 000000
2016-08-25 04:02:50,-0.02,0.16,0.00,20.10,26.22,29.74,14.50,48.37,993.76,2041.61,3423.90,3120.07,3531.89,599.99,588.40,26.39,0000 0000 0000 0000 000000
2016-08-25 04:07:51,0.01,0.16,0.00,20.16,26.25,29.77,14.51,48.49,993.75,2041.27,3423.27,3120.01,3531.25,600.21,588.47,26.44,0000 0000 0000 0000 000000
2016-08-25 04:12:53,-0.02,0.16,0.00,20.16,26.28,29.74,14.49,48.42,993.70,2041.08,3423.00,3119.98,3531.00,600.17,588.40,26.49,0000 0000 0000 0000 000000
2016-08-25 04:17:54,0.04,0.16,0.00,20.20,26.31,29.81,14.40,48.38,993.68,2041.03,3422.35,3119.38,3530.58,599.79,587.92,26.54,0000 0000 0000 0000 000000
2016-08-25 04:22:56,0.00,0.16,0.00,20.24,26.34,29.82,14.48,48.48,993.69,2041.00,3422.00,3119.01,3530.03,600.10,588.19,26.59,0000 0000 0000 0000 000000
2016-08-25 04:27:57,0.01,0.16,0.00,20.28,26.36,29.82,14.54,48.41,993.68,2041.00,3421.64,3118.98,3529.95,600.01,588.06,26.64,0000 0000 0000 0000 000000
2016-08-25 04:32:58,0.02,0.16,0.00,20.29,26.40,29.85,14.51,48.42,993.67,2040.98,3421.08,3118.66,3529.41,600.05,587.95,26.69,0000 0000 0000 0000 000000
2016-08-25 04:38:00,0.01,0.17,0.00,20.30,26.42,29.86,14.49,48.46,993.67,2040.91,3420.96,3118.03,3529.01,600.10,588.08,26.74,0000 0000 0000 0000 000000
2016-08-25 04:43:01,-0.01,0.16,0.00,20.29,26.45,29.90,14.47,48.53,993.67,2040.70,3420.45,3118.00,3528.94,599.85,587.86,26.79,0000 0000 0000 0000 000000
2016-08-25 04:48:02,-0.02,0.16,0.00,20.35,26.47,29.94,14.49,48.51,993.67,2040.44,3420.03,3117.95,3528.42,600.23,588.01,26.84,0000 0000 0000 0000 000000
2016-08-25 04:53:03,0.00,0.16,0.00,20.38,26.50,29.97,14.52,48.47,993.67,2040.05,3419.95,3117.44,3528.01,600.14,587.92,26.89,0000 0000 0000 0000 000000
2016-08-25 04:58:05,0.02,0.16,0.00,20.38,26.52,29.98,14.47,48.42,993.67,2040.03,3419.28,3117.03,3527.97,599.99,587.77,26.94,0000 0000 0000 0000 000000
2016-08-25 05:03:06,0.00,0.16,0.00,20.36,26.55,29.96,14.45,48.36,993.67,2040.00,3419.02,3117.00,3527.73,599.73,587.64,26.99,0000 0000 0000 0000 000000
2016-08-25 05:08:07,0.00,0.17,0.00,20.41,26.57,29.99,14.50,48.47,993.67,2040.00,3418.99,3117.00,3527.12,599.76,587.49,27.04,0000 0000 0000 0000 000000
2016-08-25 05:13:08,0.01,0.17,0.00,20.46,26.59,30.02,14.46,48.37,993.67,2040.00,3418.66,3116.81,3527.00,599.90,587.57,27.09,0000 0000 0000 0000 000000
2016-08-25 05:18:09,0.02,0.17,0.00,20.46,26.62,30.03,14.52,48.38,993.67,2040.00,3418.06,3116.26,3526.92,600.15,587.77,27.14,0000 0000 0000 0000 000000
2016-08-25 05:23:10,0.01,0.17,0.00,20.50,26.65,30.08,14.43,48.45,993.67,2039.98,3417.92,3116.00,3526.17,600.05,587.56,27.19,0000 0000 0000 0000 000000
2016-08-25 05:28:12,0.01,0.17,0.00,20.51,26.67,30.13,14.47,48.38,993.65,2039.96,3417.32,3115.95,3526.00,599.67,587.18,27.24,0000 0000 0000 0000 000000
2016-08-25 05:33:13,-0.01,0.17,0.00,20.57,26.70,30.15,14.42,48.38,993.62,2039.74,3417.00,3115.51,3525.81,599.82,587.24,27.29,0000 0000 0000 0000 000000
2016-08-25 05:38:14,-0.02,0.17,0.00,20.57,26.72,30.14,14.45,48.38,993.61,2039.40,3416.92,3115.08,3525.16,600.08,587.40,27.34,0000 0000 0000 0000 000000
2016-08-25 05:43:16,-0.00,0.17,0.00,20.60,26.75,30.19,14.50,48.45,993.64,2039.12,3416.27,3115.00,3525.00,600.17,587.54,27.39,0000 0000 0000 0000 000000
2016-08-25 05:48:17,0.00,0.17,0.00,20.54,26.77,30.15,14.46,48.52,993.63,2039.01,3416.00,3114.98,3524.93,600.40,587.82,27.44,0000 0000 0000 0000 000000
2016-08-25 05:53:18,0.02,0.17,0.00,20.59,26.80,30.17,14.50,48.48,993.64,2039.00,3415.93,3114.59,3524.21,599.93,587.26,27.49,0000 0000 0000 0000 000000
2016-08-25 05:58:19,0.02,0.17,0.00,20.58,26.83,30.13,14.45,48.40,993.67,2039.00,3415.28,3114.08,3524.01,599.74,587.20,27.54,0000 0000 0000 0000 000000
2016-08-25 06:03:21,0.00,0.17,0.00,20.66,26.86,30.19,14.50,48.44,993.66,2039.00,3415.01,3114.01,3523.99,600.06,587.41,27.59,0000 0000 0000 0000 000000
2016-08-25 06:08:22,0.01,0.17,0.00,20.68,26.88,30.20,14.43,48.43,993.62,2038.99,3414.95,3113.97,3523.44,600.05,587.19,27.64,0000 0000 0000 0000 000000
2016-08-25 06:13:23,0.01,0.17,0.00,20.63,26.91,30.25,14.50,48.47,993.48,2038.90,3414.49,3113.87,3523.03,600.06,587.25,27.69,0000 0000 0000 0000 000000
2016-08-25 06:18:25,0.00,0.17,0.00,20.68,26.93,30.27,14.44,48.51,993.62,2038.66,3414.02,3113.26,3523.00,599.92,587.06,27.74,0000 0000 0000 0000 000000
2016-08-25 06:23:26,-0.04,0.17,0.00,20.70,26.96,30.29,14.45,48.38,993.64,2038.10,3413.99,3113.03,3522.77,599.95,587.14,27.79,0000 0000 0000 0000 000000
2016-08-25 06:28:28,0.01,0.17,0.00,20.72,26.98,30.32,14.45,48.38,993.55,2038.02,3413.63,3113.00,3522.17,600.00,587.01,27.84,0000 0000 0000 0000 000000
2016-08-25 06:33:29,0.00,0.17,0.00,20.67,27.01,30.32,14.42,48.36,993.56,2038.00,3413.11,3112.98,3522.00,600.04,587.18,27.89,0000 0000 0000 0000 000000
2016-08-25 06:38:30,0.01,0.17,0.00,20.72,27.03,30.36,14.46,48.43,993.47,2038.00,3413.02,3112.70,3521.94,600.07,587.06,27.94,0000 0000 0000 0000 000000
2016-08-25 06:43:32,0.02,0.17,0.00,20.73,27.06,30.36,14.42,48.32,993.47,2037.96,3413.00,3112.10,3521.38,599.91,586.71,27.99,0000 0000 0000 0000 000000
2016-08-25 06:48:33,-0.02,0.17,0.00,20.83,27.08,30.35,14.42,48.27,993.50,2037.75,3412.84,3112.00,3521.03,599.97,586.80,28.04,0000 0000 0000 0000 000000
2016-08-25 06:53:34,-0.03,0.17,0.00,20.86,27.10,30.38,14.45,48.32,993.45,2037.32,3412.23,3112.00,3521.00,600.03,586.58,28.09,0000 0000 0000 0000 000000
2016-08-25 06:58:35,-0.01,0.17,0.00,20.88,27.12,30.45,14.44,48.33,993.34,2037.07,3412.02,3111.97,3520.94,599.84,586.37,28.14,0000 0000 0000 0000 000000
2016-08-25 07:03:37,0.01,0.17,0.00,20.99,27.15,30.40,14.44,48.24,993.32,2037.04,3411.98,3111.80,3520.62,600.35,586.75,28.19,0000 0000 0000 0000 000000
2016-08-25 07:08:38,0.02,0.17,0.00,20.99,27.17,30.44,14.42,48.29,993.44,2037.00,3411.82,3111.13,3520.03,600.09,586.41,28.25,0000 0000 0000 0000 000000
2016-08-25 07:13:39,0.01,0.17,0.00,20.97,27.19,30.45,14.39,48.30,993.28,2037.00,3411.34,3111.03,3520.00,599.85,586.17,28.30,0000 0000 0000 0000 000000
2016-08-25 07:18:41,0.00,0.17,0.00,20.96,27.21,30.52,14.45,48.32,993.19,2036.99,3411.01,3111.00,3519.98,600.10,586.54,28.35,0000 0000 0000 0000 000000
2016-08-25 07:23:42,0.00,0.17,0.00,21.04,27.23,30.55,14.43,48.30,993.20,2036.98,3410.97,3110.97,3519.66,599.90,586.02,28.40,0000 0000 0000 0000 000000
2016-08-25 07:28:43,0.01,0.17,0.00,21.07,27.26,30.60,14.38,48.23,993.20,2036.96,3410.80,3110.77,3519.11,599.77,585.90,28.45,0000 0000 0000 0000 000000
2016-08-25 07:33:44,0.01,0.17,0.00,21.11,27.28,30.62,14.37,48.31,993.20,2036.89,3410.14,3110.23,3519.01,599.86,585.88,28.50,0000 0000 0000 0000 000000
2016-08-25 07:38:45,-0.04,0.17,0.00,21.05,27.31,30.65,14.43,48.27,993.20,2036.44,3410.00,3110.02,3519.00,600.28,586.43,28.55,0000 0000 0000 0000 000000
2016-08-25 07:43:46,-0.02,0.17,0.00,21.04,27.33,30.64,14.49,48.30,993.23,2036.18,3409.97,3110.00,3518.96,600.21,586.45,28.60,0000 0000 0000 0000 000000
2016-08-25 07:48:48,0.00,0.17,0.00,21.03,27.36,30.70,14.45,48.32,993.27,2036.08,3409.93,3109.98,3518.73,600.04,586.32,28.65,0000 0000 0000 0000 000000
2016-08-25 07:53:49,0.02,0.17,0.00,21.09,27.38,30.71,14.35,48.35,993.23,2036.01,3409.39,3109.88,3518.11,599.59,585.70,28.70,0000 0000 0000 0000 000000
2016-08-25 07:58:50,0.01,0.17,0.00,21.09,27.41,30.72,14.43,48.36,993.21,2036.01,3409.03,3109.49,3518.02,600.13,586.17,28.75,0000 0000 0000 0000 000000
2016-08-25 08:03:52,0.00,0.17,0.00,21.12,27.44,30.77,14.51,48.33,993.21,2036.00,3409.00,3109.06,3517.99,600.03,586.03,28.80,0000 0000 0000 0000 000000
2016-08-25 08:08:53,0.00,0.17,0.00,21.16,27.47,30.82,14.47,48.38,993.27,2036.00,3408.96,3109.00,3517.81,600.18,586.20,28.85,0000 0000 0000 0000 000000
2016-08-25 08:13:54,0.01,0.17,0.00,21.26,27.50,30.84,14.46,48.39,993.30,2035.99,3408.65,3108.99,3517.14,600.08,585.88,28.90,0000 0000 0000 0000 000000
2016-08-25 08:18:56,0.01,0.17,0.00,21.29,27.53,30.83,14.42,48.40,993.26,2035.98,3408.05,3108.86,3517.01,599.96,585.62,28.95,0000 0000 0000 0000 000000
2016-08-25 08:23:57,0.01,0.17,0.00,21.26,27.56,30.89,14.43,48.36,993.22,2035.92,3408.00,3108.26,3517.00,600.22,585.98,29.00,0000 0000 0000 0000 000000
2016-08-25 08:28:58,-0.01,0.17,0.00,21.28,27.59,30.95,14.43,48.39,993.21,2035.76,3407.96,3108.04,3516.89,600.06,585.85,29.05,0000 0000 0000 0000 000000
2016-08-25 08:33:59,-0.03,0.17,0.00,21.36,27.62,30.95,14.36,48.42,993.20,2035.25,3407.30,3108.00,3516.11,599.91,585.52,29.10,0000 0000 0000 0000 000000
2016-08-25 08:39:00,-0.00,0.17,0.00,21.38,27.65,30.98,14.42,48.35,993.24,2035.02,3407.01,3107.93,3516.00,600.12,585.63,29.15,0000 0000 0000 0000 000000
2016-08-25 08:44:01,0.01,0.17,0.00,21.28,27.68,30.98,14.48,48.29,993.23,2035.00,3407.00,3107.52,3515.95,600.47,586.30,29.20,0000 0000 0000 0000 000000
2016-08-25 08:49:02,0.01,0.17,0.00,21.33,27.71,31.02,14.38,48.33,993.26,2034.98,3407.00,3107.14,3515.47,599.72,585.24,29.25,0000 0000 0000 0000 000000
2016-08-25 08:54:03,0.01,0.17,0.00,21.38,27.74,31.06,14.41,48.33,993.44,2034.97,3406.71,3107.01,3515.01,599.99,585.60,29.30,0000 0000 0000 0000 000000
2016-08-25 08:59:05,-0.00,0.17,0.00,21.46,27.76,31.07,14.37,48.35,993.55,2034.87,3406.05,3106.99,3515.00,599.72,585.25,29.35,0000 0000 0000 0000 000000
2016-08-25 09:04:06,-0.04,0.17,0.00,21.42,27.79,31.11,14.39,48.35,993.63,2034.35,3405.99,3106.68,3514.73,600.13,585.80,29.40,0000 0000 0000 0000 000000
2016-08-25 09:09:07,0.01,0.17,0.00,21.47,27.82,31.12,14.47,48.36,993.63,2034.11,3405.89,3106.18,3514.24,599.79,585.36,29.45,0000 0000 0000 0000 000000
2016-08-25 09:14:08,0.01,0.17,0.00,21.57,27.84,31.13,14.36,48.14,993.50,2034.02,3405.39,3106.02,3514.01,600.16,585.39,29.50,0000 0000 0000 0000 000000
2016-08-25 09:19:09,0.02,0.17,0.00,21.57,27.86,31.20,14.37,48.22,993.41,2034.01,3404.68,3105.91,3513.76,599.81,585.07,29.55,0000 0000 0000 0000 000000
2016-08-25 09:24:11,0.03,0.18,0.00,21.55,27.88,31.18,14.41,48.27,993.38,2034.00,3404.02,3105.18,3513.05,600.05,585.42,29.60,0000 0000 0000 0000 000000
2016-08-25 09:29:12,0.00,0.18,0.00,21.53,27.91,31.16,14.40,48.19,993.47,2034.00,3404.00,3105.03,3513.00,599.71,585.17,29.65,0000 0000 0000 0000 000000
2016-08-25 09:34:13,-0.00,0.18,0.00,21.52,27.92,31.19,14.44,48.27,993.30,2033.96,3403.95,3105.00,3512.97,600.10,585.36,29.70,0000 0000 0000 0000 000000
2016-08-25 09:39:14,0.01,0.18,0.00,21.62,27.95,31.23,14.35,48.23,993.23,2033.98,3403.53,3105.00,3512.79,600.00,585.09,29.75,0000 0000 0000 0000 000000
2016-08-25 09:44:15,0.01,0.18,0.00,21.64,27.97,31.26,14.41,48.28,993.32,2033.92,3403.07,3104.98,3512.18,599.90,584.96,29.80,0000 0000 0000 0000 000000
2016-08-25 09:49:16,-0.00,0.18,0.00,21.63,27.98,31.28,14.37,48.31,993.39,2033.79,3403.00,3104.64,3512.02,599.90,585.09,29.85,0000 0000 0000 0000 000000
2016-08-25 09:54:18,0.03,0.18,0.00,21.68,28.00,31.31,14.44,48.20,993.49,2033.83,3402.74,3104.17,3512.00,600.05,585.08,29.90,0000 0000 0000 0000 000000
2016-08-25 09:59:19,-0.01,0.18,0.00,21.71,28.02,31.37,14.38,48.33,993.56,2033.77,3402.10,3104.01,3511.98,599.75,584.81,29.95,0000 0000 0000 0000 000000
2016-08-25 10:04:20,0.01,0.18,0.00,21.70,28.03,31.36,14.46,48.21,993.60,2033.77,3402.00,3104.00,3511.92,600.42,585.64,30.00,0000 0000 0000 0000 000000
2016-08-25 10:09:22,0.01,0.18,0.00,21.70,28.05,31.37,14.35,48.27,993.60,2033.77,3401.99,3103.98,3511.43,599.89,585.08,30.05,0000 0000 0000 0000 000000
2016-08-25 10:14:23,-0.02,0.18,0.00,21.76,28.06,31.39,14.39,48.14,993.61,2033.49,3401.77,3103.95,3511.06,599.68,584.77,30.10,0000 0000 0000 0000 000000
2016-08-25 10:19:24,0.00,0.18,0.00,21.82,28.07,31.47,14.41,48.19,993.55,2033.31,3401.24,3103.71,3511.00,599.99,584.86,30.15,0000 0000 0000 0000 000000
2016-08-25 10:24:25,-0.00,0.18,0.00,21.84,28.08,31.49,14.36,48.25,993.35,2033.10,3401.02,3103.29,3511.00,599.52,584.29,30.20,0000 0000 0000 0000 000000
2016-08-25 10:29:27,0.01,0.18,0.00,21.87,28.10,31.53,14.35,48.19,993.28,2033.06,3401.00,3103.05,3510.97,600.10,584.74,30.25,0000 0000 0000 0000 000000
2016-08-25 10:34:28,-0.00,0.18,0.00,21.87,28.10,31.54,14.40,48.22,993.46,2033.03,3400.99,3103.01,3510.75,600.11,584.81,30.30,0000 0000 0000 0000 000000
2016-08-25 10:39:29,0.00,0.18,0.00,21.90,28.11,31.55,14.37,48.26,993.54,2033.01,3400.97,3103.00,3510.49,599.53,584.28,30.35,0000 0000 0000 0000 000000
2016-08-25 10:44:30,0.00,0.18,0.00,21.87,28.12,31.58,14.40,48.17,993.55,2033.00,3400.90,3103.00,3510.10,599.94,584.66,30.40,0000 0000 0000 0000 000000
2016-08-25 10:49:31,0.01,0.18,0.00,21.90,28.12,31.61,14.36,48.08,993.47,2033.00,3400.24,3103.00,3510.02,599.78,584.53,30.45,0000 0000 0000 0000 000000
2016-08-25 10:54:33,0.00,0.18,0.00,21.96,28.14,31.64,14.36,48.14,993.54,2033.00,3400.12,3102.98,3510.00,599.86,584.36,30.50,0000 0000 0000 0000 000000
2016-08-25 10:59:34,0.00,0.18,0.00,21.98,28.15,31.68,14.40,48.10,993.65,2033.00,3400.03,3102.97,3510.00,600.03,584.58,30.55,0000 0000 0000 0000 000000
2016-08-25 11:04:35,0.00,0.18,0.00,21.97,28.16,31.66,14.39,48.06,993.64,2032.99,3400.01,3102.94,3509.98,600.19,584.78,30.60,0000 0000 0000 0000 000000
2016-08-25 11:09:36,0.03,0.18,0.00,21.94,28.17,31.68,14.41,48.06,993.58,2032.98,3399.72,3102.32,3509.56,600.61,585.23,30.65,0000 0000 0000 0000 000000
2016-08-25 11:14:38,0.02,0.18,0.00,21.91,28.17,31.68,14.36,48.08,993.59,2032.97,3398.34,3101.97,3508.98,599.95,584.50,30.70,0000 0000 0000 0000 000000
2016-08-25 11:19:39,0.01,0.18,0.00,21.95,28.17,31.72,14.41,48.02,993.58,2032.99,3398.00,3101.75,3508.73,600.32,584.93,30.75,0000 0000 0000 0000 000000
2016-08-25 11:24:40,0.03,0.18,0.00,21.95,28.19,31.73,14.40,48.12,993.54,2032.98,3397.45,3101.15,3508.12,600.15,584.69,30.80,0000 0000 0000 0000 000000
2016-08-25 11:29:42,0.00,0.19,0.00,21.99,28.20,31.75,14.35,48.07,993.59,2032.99,3396.95,3101.00,3508.00,599.67,584.16,30.85,0000 0000 0000 0000 000000
2016-08-25 11:34:43,0.02,0.19,0.00,22.01,28.21,31.75,14.39,48.15,993.63,2032.98,3396.15,3100.95,3507.58,600.21,584.73,30.90,0000 0000 0000 0000 000000
2016-08-25 11:39:44,0.01,0.19,0.00,22.00,28.22,31.77,14.44,48.17,993.61,2032.97,3396.00,3100.61,3507.10,600.22,584.73,30.95,0000 0000 0000 0000 000000
2016-08-25 11:44:46,0.01,0.19,0.00,22.01,28.22,31.80,14.38,48.08,993.64,2032.94,3395.74,3100.05,3507.00,600.05,584.61,31.00,0000 0000 0000 0000 000000
2016-08-25 11:49:47,0.01,0.19,0.00,22.00,28.24,31.79,14.42,48.04,993.67,2032.95,3395.06,3100.00,3507.00,600.14,584.61,31.05,0000 0000 0000 0000 000000
2016-08-25 11:54:48,-0.00,0.19,0.00,22.01,28.25,31.79,14.37,48.01,993.67,2032.90,3395.00,3100.00,3506.95,600.05,584.63,31.10,0000 0000 0000 0000 000000
2016-08-25 11:59:50,-0.02,0.19,0.00,21.99,28.25,31.81,14.31,48.05,993.67,2032.56,3394.97,3099.99,3506.36,599.65,584.27,31.15,0000 0000 0000 0000 000000
2016-08-25 12:04:51,-0.01,0.19,0.00,22.02,28.26,31.83,14.35,48.04,993.67,2032.45,3394.91,3099.99,3506.10,599.81,584.26,31.20,0000 0000 0000 0000 000000
2016-08-25 12:09:52,0.01,0.19,0.00,22.01,28.27,31.84,14.42,48.14,993.67,2032.47,3394.26,3099.91,3506.01,600.04,584.60,31.25,0000 0000 0000 0000 000000
2016-08-25 12:14:53,-0.00,0.19,0.00,22.02,28.27,31.82,14.38,48.08,993.66,2032.23,3394.01,3099.70,3506.00,600.24,584.69,31.30,0000 0000 0000 0000 000000
2016-08-25 12:19:55,0.00,0.19,0.00,22.01,28.27,31.85,14.45,48.02,993.64,2032.17,3393.98,3099.23,3505.99,600.15,584.71,31.35,0000 0000 0000 0000 000000
2016-08-25 12:24:56,0.01,0.19,0.00,21.97,28.27,31.87,14.42,48.02,993.66,2032.04,3393.87,3099.02,3505.95,600.21,584.82,31.40,0000 0000 0000 0000 000000
2016-08-25 12:29:57,0.01,0.19,0.00,22.02,28.27,31.85,14.42,48.06,993.63,2032.05,3393.43,3099.00,3505.78,599.96,584.58,31.46,0000 0000 0000 0000 000000
2016-08-25 12:34:59,0.01,0.19,0.00,22.05,28.27,31.86,14.34,47.96,993.64,2032.08,3393.07,3099.00,3505.49,599.98,584.42,31.51,0000 0000 0000 0000 000000
2016-08-25 12:40:00,0.00,0.19,0.00,22.04,28.27,31.88,14.43,48.00,993.59,2032.09,3393.01,3099.00,3505.27,599.96,584.54,31.56,0000 0000 0000 0000 000000
2016-08-25 12:45:01,-0.00,0.19,0.00,22.02,28.27,31.88,14.33,47.90,993.58,2032.05,3393.00,3099.00,3505.07,599.68,584.22,31.61,0000 0000 0000 0000 000000
2016-08-25 12:50:02,0.00,0.19,0.00,22.03,28.27,31.89,14.41,47.98,993.64,2032.05,3393.00,3099.00,3505.02,600.08,584.56,31.66,0000 0000 0000 0000 000000
2016-08-25 12:55:03,0.01,0.19,0.00,21.95,28.27,31.89,14.42,48.13,993.65,2032.09,3392.81,3098.99,3505.00,600.14,584.79,31.71,0000 0000 0000 0000 000000
2016-08-25 13:00:04,0.06,0.19,0.00,22.01,28.27,31.89,14.42,48.09,993.54,2032.08,3391.49,3098.30,3504.42,600.04,584.50,31.76,0000 0000 0000 0000 000000